Location: Asheville, NC
(35.6000°N, 82.5500°W)
Time: 21:53:21
(UTC-04:00)

XW-2A - Visible Passes

Search period start: 25 April 2018 00:00
Search period end: 05 May 2018 00:00
Orbit: 436 x 454 km, 97.4° (Epoch: 25 April)

Date Brightness Start Highest point End Pass type
(mag) Time Alt. Az. Time Alt. Az. Time Alt. Az.
26 Apr ? 21:22:30 10° SSW 21:25:32 29° W 21:28:33 10° NW visible
27 Apr ? 20:45:43 10° SSE 20:49:06 74° ENE 20:52:31 10° N visible
28 Apr ? 21:43:15 10° SW 21:45:25 16° W 21:47:37 10° NW visible
29 Apr ? 21:05:34 10° S 21:08:54 53° W 21:12:15 10° NNW visible
01 May ? 21:25:49 10° SSW 21:28:44 27° W 21:31:41 10° NW visible
02 May ? 20:48:54 10° SSE 20:52:17 81° ENE 20:55:42 10° N visible
03 May ? 21:46:38 10° SW 21:48:36 15° W 21:50:35 10° WNW visible
04 May ? 21:08:46 10° S 21:12:03 48° W 21:15:21 10° NNW visible
